{"data":{"norad_id":49281,"intl_designator":"2021-090C","name":"ONEWEB-0349","alt_names":[],"object_type":"PAYLOAD","status":"ACTIVE","operator":null,"country":"UK","launch_date":"2021-10-14","launch_site_code":"VOSTO","launch_vehicle":null,"mission":null,"orbit_class":"UNKNOWN","rcs_meters":null,"size_class":null,"mass_kg":null,"dimensions":null,"purposes":["comms"],"wikipedia_slug":null,"has_3d_model":false,"image_url":null,"decayed_at":null,"tle_current":{"epoch":"2026-05-25T02:55:53.899104Z","epoch_age_seconds":57808,"freshness":"FRESH","line1":"1 49281U 21090C   26145.12215161  .00000053  00000+0  97220-4 0  9994","line2":"2 49281  87.9175 279.0398 0001865 100.0495 260.0849 13.20769502226789","mean_motion":13.20769502,"eccentricity":0.0001865,"inclination_deg":87.9175,"raan_deg":279.0398,"arg_perigee_deg":100.0495,"mean_anomaly_deg":260.0849,"bstar":9.722e-5,"rev_number":22678,"period_min":109.02735093591,"perigee_km":1180.3722661192,"apogee_km":1183.1921159775,"semimajor_km":7559.9191910483,"source":"CELESTRAK","updated_at":"2026-05-25T13:38:22.519453Z"}}}